Location: Unspecified
(54.1780°N, 0.0000°E)
Time: 16:03:16
(UTC+00:00)

Transit 2A - Pass Details

Date: 18 June 2019
Orbit: 595 x 964 km, 66.7° (Epoch: 22 July)

Event Time Altitude Azimuth Distance (km) Brightness Sun altitude
Rises 00:58:54 0° 190° (S) 3,624 - -11.4°
Reaches altitude 10° 01:01:35 10° 183° (S) 2,694 - -11.3°
Exits shadow 01:02:22 14° 180° (S) 2,435 8.0 -11.3°
Maximum altitude 01:07:26 40° 117° (ESE) 1,381 7.2 -11.1°
Drops below altitude 10° 01:13:12 10° 50° (NE) 2,652 9.7 -10.9°
Sets 01:15:49 0° 43° (NE) 3,563 10.7 -10.8°
